Location: Les Moreaux
(47.2278°N, 1.4966°E)
Time: 20:34:59
(UTC+00:00)

Spot 2 Rocket - Pass Details

Date: 19 May 2025
Orbit: 753 x 766 km, 98.3° (Epoch: 21 June)

Event Time Altitude Azimuth Distance (km) Brightness Sun altitude
Exits shadow 20:17:45 - 139° (SE) 2,358 5.4 -7.6°
Reaches altitude 10° 20:17:59 10° 138° (SE) 2,275 5.3 -7.6°
Maximum altitude 20:22:41 43° 68° (ENE) 1,061 4.1 -8.2°
Drops below altitude 10° 20:27:26 10° 358° (N) 2,296 6.7 -8.8°
Sets 20:29:50 0° 352° (N) 3,227 7.6 -9.1°
